TimePST,TemperatureF,Dew PointF,Humidity,Sea Level PressureIn,VisibilityMPH,Wind Direction,Wind SpeedMPH,Gust SpeedMPH,PrecipitationIn,Events,Conditions,WindDirDegrees,DateUTC
12:15 AM,19.4,17.6,93,30.11,10.0,Calm,Calm,-,N/A,,Overcast,0,2014-02-24 08:15:00
12:35 AM,19.4,15.8,86,30.12,10.0,Calm,Calm,-,N/A,,Overcast,0,2014-02-24 08:35:00
12:55 AM,19.4,15.8,86,30.13,10.0,Calm,Calm,-,N/A,,Overcast,0,2014-02-24 08:55:00
1:15 AM,19.4,15.8,86,30.14,10.0,Calm,Calm,-,N/A,,Overcast,0,2014-02-24 09:15:00
1:35 AM,19.4,14.0,80,30.14,10.0,Calm,Calm,-,N/A,,Overcast,0,2014-02-24 09:35:00
1:55 AM,19.4,15.8,86,30.15,10.0,Calm,Calm,-,N/A,,Overcast,0,2014-02-24 09:55:00
2:15 AM,17.6,14.0,86,30.16,10.0,Calm,Calm,-,N/A,,Overcast,0,2014-02-24 10:15:00
2:35 AM,19.4,15.8,86,30.16,10.0,Calm,Calm,-,N/A,,Overcast,0,2014-02-24 10:35:00
2:55 AM,19.4,15.8,86,30.17,10.0,Calm,Calm,-,N/A,,Overcast,0,2014-02-24 10:55:00
3:15 AM,19.4,10.4,68,30.17,10.0,Calm,Calm,-,N/A,,Overcast,0,2014-02-24 11:15:00
3:35 AM,19.4,10.4,68,30.18,10.0,Calm,Calm,-,N/A,,Overcast,0,2014-02-24 11:35:00
3:55 AM,19.4,10.4,68,30.19,10.0,Calm,Calm,-,N/A,,Overcast,0,2014-02-24 11:55:00
4:15 AM,19.4,10.4,68,30.20,10.0,NW,4.6,-,N/A,,Overcast,320,2014-02-24 12:15:00
4:35 AM,19.4,12.2,74,30.21,10.0,Calm,Calm,-,N/A,,Overcast,0,2014-02-24 12:35:00
4:55 AM,19.4,14.0,80,30.21,10.0,Calm,Calm,-,N/A,,Overcast,0,2014-02-24 12:55:00
5:15 AM,19.4,14.0,80,30.22,10.0,Calm,Calm,-,N/A,,Overcast,0,2014-02-24 13:15:00
5:35 AM,17.6,14.0,86,30.23,10.0,Calm,Calm,-,N/A,,Overcast,0,2014-02-24 13:35:00
5:55 AM,17.6,14.0,86,30.23,10.0,Calm,Calm,-,N/A,,Overcast,0,2014-02-24 13:55:00
6:15 AM,17.6,14.0,86,30.23,10.0,Calm,Calm,-,N/A,,Overcast,0,2014-02-24 14:15:00
6:35 AM,19.4,12.2,74,30.24,10.0,Calm,Calm,-,N/A,,Overcast,0,2014-02-24 14:35:00
6:55 AM,17.6,10.4,73,30.25,10.0,Calm,Calm,-,N/A,,Overcast,0,2014-02-24 14:55:00
7:15 AM,19.4,10.4,68,30.26,10.0,Calm,Calm,-,N/A,,Overcast,0,2014-02-24 15:15:00
7:35 AM,19.4,10.4,68,30.27,10.0,Calm,Calm,-,N/A,,Overcast,0,2014-02-24 15:35:00
7:55 AM,19.4,8.6,63,30.28,10.0,Calm,Calm,-,N/A,,Overcast,0,2014-02-24 15:55:00
8:15 AM,19.4,8.6,63,30.28,10.0,Calm,Calm,-,N/A,,Overcast,0,2014-02-24 16:15:00
8:35 AM,19.4,8.6,63,30.29,10.0,Calm,Calm,-,N/A,,Overcast,0,2014-02-24 16:35:00
8:55 AM,19.4,8.6,63,30.29,10.0,NNW,5.8,-,N/A,,Mostly Cloudy,330,2014-02-24 16:55:00
9:15 AM,19.4,6.8,58,30.30,10.0,Calm,Calm,-,N/A,,Mostly Cloudy,0,2014-02-24 17:15:00
9:35 AM,21.2,6.8,54,30.30,10.0,NNW,6.9,-,N/A,,Mostly Cloudy,340,2014-02-24 17:35:00
9:55 AM,21.2,5.0,50,30.30,10.0,NNW,3.5,-,N/A,,Scattered Clouds,340,2014-02-24 17:55:00
10:15 AM,21.2,6.8,54,30.30,10.0,Calm,Calm,-,N/A,,Scattered Clouds,0,2014-02-24 18:15:00
10:35 AM,23.0,5.0,46,30.30,10.0,Calm,Calm,-,N/A,,Mostly Cloudy,0,2014-02-24 18:35:00
10:55 AM,23.0,5.0,46,30.30,10.0,Calm,Calm,-,N/A,,Partly Cloudy,0,2014-02-24 18:55:00
11:15 AM,23.0,5.0,46,30.30,10.0,Calm,Calm,-,N/A,,Partly Cloudy,0,2014-02-24 19:15:00
11:35 AM,23.0,5.0,46,30.30,10.0,Calm,Calm,-,N/A,,Partly Cloudy,0,2014-02-24 19:35:00
11:55 AM,23.0,5.0,46,30.29,10.0,Calm,Calm,-,N/A,,Partly Cloudy,0,2014-02-24 19:55:00
12:15 PM,23.0,5.0,46,30.29,10.0,Calm,Calm,-,N/A,,Clear,0,2014-02-24 20:15:00
12:35 PM,23.0,5.0,46,30.29,10.0,Calm,Calm,-,N/A,,Clear,0,2014-02-24 20:35:00
12:55 PM,23.0,6.8,50,30.28,10.0,Calm,Calm,-,N/A,,Clear,0,2014-02-24 20:55:00
1:15 PM,23.0,6.8,50,30.27,10.0,Calm,Calm,-,N/A,,Clear,0,2014-02-24 21:15:00
1:35 PM,23.0,8.6,54,30.27,10.0,Calm,Calm,-,N/A,,Clear,0,2014-02-24 21:35:00